Al Hoceima, Morocco

12:52 PM WET on May 23, 2017 (GMT +0000)
Al Hoceima

Weather History for GMTA - September, 2013

Change the Weather History Date:

Thursday, September 5, 2013

  Actual Average Record
Temperature  
Mean Temperature 75 °F -  
Max Temperature 81 °F 75 °F 91 °F (2005)
Min Temperature 69 °F 62 °F 60 °F (2002)
Cooling Degree Days 10    
Growing Degree Days 25 (Base 50)    
Moisture  
Dew Point 68 °F    
Average Humidity 69    
Maximum Humidity 78    
Minimum Humidity 60    
Precipitation  
Precipitation 0.00 in - - ()
Sea Level Pressure  
Sea Level Pressure 29.98 in    
Wind  
Wind Speed 5 mph ()    
Max Wind Speed 14 mph    
Max Gust Speed -    
Visibility 5.9 miles    
Events      
Averages and records for this station are not official NWS values.
T = Trace of Precipitation, MM = Missing Value Source: Averaged Metar Reports

Daily Weather History Graph

Daily Weather History Graph

Search for Another Location

Airport or City:

Trip Planner

Search our weather history database for the weather conditions in past years. The results will help you decide how hot, cold, wet, or windy it might be!

Date:

Astronomy

Sep. 05, 2013 Rise Set
Actual Time 6:50 AM WEST 7:36 PM WEST
Civil Twilight 6:25 AM WEST 8:02 PM WEST
Nautical Twilight 5:54 AM WEST 8:32 PM WEST
Astronomical Twilight 5:23 AM WEST 9:03 PM WEST
Moon 6:46 AM WEST (9/5) 7:23 PM WEST (9/5)
Length of Visible Light 13h 37m
Length of Day
12h 45m
Waning Crescent, 0% of the Moon is Illuminated
Sep 5
Waning Crescent
Sep 5
New
Sep 12
First Quarter
Sep 19
Full
Sep 27
Last Quarter

Hourly Weather History & Observations

Time (WEST) Temp. Heat Index Dew Point Humidity Pressure Visibility Wind Dir Wind Speed Gust Speed Precip Events Conditions
7:00 AM 69.8 °F - 62.6 °F 78% 29.98 in 5.0 mi South 2.3 mph - N/A   Partly Cloudy
8:00 AM 73.4 °F - 66.2 °F 78% 29.98 in 5.0 mi South 2.3 mph - N/A   Partly Cloudy
9:00 AM 77.0 °F - 68.0 °F 74% 29.98 in 5.0 mi SE 2.3 mph - N/A   Partly Cloudy
10:00 AM 79 °F - 68 °F 60% 30.01 in 6 mi NNE 4.6 mph - -   Scattered Clouds
10:00 AM 78.8 °F - 68.0 °F 69% 30.01 in 5.0 mi NNE 4.6 mph - N/A   Partly Cloudy
11:00 AM 78.8 °F - 66.2 °F 65% 29.98 in 6.2 mi NNE 9.2 mph - N/A   Partly Cloudy
12:00 PM 78.8 °F - 69.8 °F 74% 29.98 in 6.2 mi North 11.5 mph - N/A   Partly Cloudy
1:00 PM 80 °F - 69 °F 61% 30.00 in 6 mi NNE 11.5 mph - -   Scattered Clouds
1:00 PM 80.6 °F 83.2 °F 68.0 °F 65% 29.98 in 6.2 mi NNE 11.5 mph - N/A   Partly Cloudy
2:00 PM 80.6 °F 83.9 °F 69.8 °F 70% 29.98 in 6.2 mi NNE 13.8 mph - N/A   Partly Cloudy
3:00 PM 80.6 °F 84.6 °F 71.6 °F 74% 29.98 in 6.2 mi NNE 9.2 mph - N/A   Partly Cloudy
4:00 PM 80 °F - 69 °F 61% 29.97 in 6 mi NNE 11.5 mph - -   Scattered Clouds
4:00 PM 78.8 °F - 69.8 °F 74% 29.95 in 6.2 mi NNE 11.5 mph - N/A   Scattered Clouds
5:00 PM 78.8 °F - 69.8 °F 74% 29.95 in 6.2 mi NNE 9.2 mph - N/A   Scattered Clouds
6:00 PM 78.8 °F - 68.0 °F 69% 29.95 in 6.2 mi NNE 9.2 mph - N/A   Scattered Clouds
7:00 PM 78 °F - 69 °F 66% 29.97 in 6 mi North 4.6 mph - -   Scattered Clouds
7:00 PM 78.8 °F - 68.0 °F 69% 29.95 in 6.2 mi North 4.6 mph - N/A   Scattered Clouds
8:00 PM 77.0 °F - 66.2 °F 69% 29.95 in 6.2 mi West 4.6 mph - N/A   Scattered Clouds
9:00 PM 78.8 °F - 68.0 °F 69% 29.98 in 6.2 mi WNW 2.3 mph - N/A   Scattered Clouds
10:00 PM 78 °F - 67 °F 60% 29.99 in 6 mi ENE 2.3 mph - -   Scattered Clouds
10:00 PM 77.0 °F - 66.2 °F 69% 29.98 in 6.2 mi ENE 2.3 mph - N/A   Scattered Clouds